Find Starlink 11583

NORAD ID: 62991 Int'l Des: 2025-031 Owner: SPXS Country: US Constellation: starlink operational
LEOCIRCULAR

Current View

Loading 3D Globe...

About Starlink 11583

Starlink 11583 (NORAD 62991) is a starlink constellation satellite (v2 mini d2c) launched Feb 11, 2025 by SPXS of US. It operates in LEO, CIRCULAR orbit with a mass of 960.00 kg.

About Starlink 11583

Description loading...

Upcoming Passes

Passes for default location (London). Set your location on the main map for personalized predictions.

Altitude History

Loading altitude history...

Two-Line Element Set

1 62991U 25031L 26171.21170648 .00148448 00000-0 11404-2 0 9995
2 62991 43.0005 103.7409 0001469 255.3919 104.6786 15.70827658 78870
Epoch: Jun 20, 2026 • Age: 7 hours

Current Status

Altitude 368.6 km
Velocity 7.69 km/s
Sub-Earth Point -43.16°S, 81.39°W
Launch Date Feb 11, 2025
Age 1.3 years
Type internet

Technical Details

Classification Payload
Mass 960.00 kg
Dry Mass 910.00 kg
Total Mass 960.00 kg
Length 0.30 m
Diameter 4.10 m
Span 29.00 m
Shape Box + pan
Manufacturer SPXS
Bus Type Starlink V2MD
Phase Status In Orbit
Owner/State SPXS/US

Most Searched